Location: Newark
(33.4133°N, 82.3847°W)
Time: 17:09:55
(UTC+00:00)

Envisat - Visible Passes

Search period start: 27 January 2020 00:00
Search period end: 06 February 2020 00:00
Orbit: 764 x 766 km, 98.1° (Epoch: 27 January)

Date Brightness Start Highest point End Pass type
(mag) Time Alt. Az. Time Alt. Az. Time Alt. Az.
27 Jan 4.2 11:43:11 10° NNE 11:48:06 48° E 11:52:59 10° S visible
28 Jan 5.9 00:34:05 10° SW 00:37:31 18° W 00:40:57 10° NW visible
28 Jan 5.8 11:07:29 10° NE 11:11:09 20° E 11:14:49 10° SE visible
28 Jan 4.3 23:55:45 10° S 00:00:34 43° W 00:05:24 10° NNW visible
29 Jan 3.0 23:18:43 10° SSE 23:23:46 77° ENE 23:28:51 10° N visible
30 Jan 4.8 11:32:05 10° NNE 11:36:47 37° E 11:41:26 10° SSE visible
31 Jan 5.5 00:22:08 10° SSW 00:26:09 23° W 00:30:11 10° NW visible
31 Jan 6.2 10:56:52 10° ENE 10:59:47 15° E 11:02:41 10° SE visible
31 Jan 3.8 23:44:16 10° S 23:49:14 57° W 23:54:15 10° NNW visible
01 Feb 3.4 11:57:14 10° NNE 12:02:18 70° E 12:07:21 10° S visible
02 Feb 6.3 00:49:48 10° WSW 00:51:50 12° W 00:53:53 10° WNW visible
02 Feb 5.3 11:21:05 10° NE 11:25:26 28° E 11:29:46 10° SSE visible
03 Feb 5.1 00:10:22 10° SSW 00:14:48 30° W 00:19:15 10° NW visible
03 Feb 6.4 10:46:48 10° ENE 10:48:23 11° E 10:49:58 10° ESE visible
03 Feb 3.3 23:32:53 10° S 23:37:56 75° WSW 23:43:01 10° NNW visible
04 Feb 4.0 11:46:02 10° NNE 11:51:01 53° E 11:55:57 10° S visible
05 Feb 6.1 00:37:18 10° SW 00:40:27 16° W 00:43:35 10° NW visible
05 Feb 5.7 11:10:11 10° NE 11:14:05 22° E 11:17:57 10° SE visible
